Tracking 18852 objects as of 23-Nov-2017
HD Live streaming from Space Station
objects crossing your sky now

CE-SAT 1

Track CE-SAT 1 now!
10-day predictions


NORAD ID: 42769
Int'l Code: 2017-036E
Perigee: 501.4 km
Apogee: 525.2 km
Inclination: 97.4 °
Period: 94.7 minutes
Semi major axis: 6884 km
RCS: Unknown
Launch date: June 23, 2017
Source: Japan (JPN)
Launch site: SRIHARIKOTA (SRI)
aabbcc
Your satellite tracking list
Your tracking list is empty




NASA's NSSDC Master Catalog

Two Line Element Set (TLE):
1 42769U 17036E   17326.76613490 +.00001064 +00000-0 +52597-4 0  9993
2 42769 097.4306 024.3840 0017301 069.9531 290.3564 15.19883969023109
Source of the keplerian elements: AFSPC